Brainerd, MN

2:07 AM CDT on September 29, 2016 (GMT -0500)
Brainerd-Crow Wing County Regional

Weather History for KBRD - October, 2013

Change the Weather History Date:

Saturday, October 26, 2013

  Actual Average Record
Temperature  
Mean Temperature 40 °F -  
Max Temperature 44 °F 52 °F 78 °F (1989)
Min Temperature 32 °F 31 °F 14 °F (1981)
Degree Days  
Heating Degree Days 26    
Moisture  
Dew Point 27 °F    
Average Humidity 63    
Maximum Humidity 75    
Minimum Humidity 49    
Precipitation  
Precipitation 0.00 in - - ()
Sea Level Pressure  
Sea Level Pressure 30.03 in    
Wind  
Wind Speed 15 mph (NW)    
Max Wind Speed 21 mph    
Max Gust Speed 31 mph    
Visibility 10 miles    
Events      
Averages and records for this station are not official NWS values.
T = Trace of Precipitation, MM = Missing Value Source: NWS Daily Summary

Daily Weather History Graph

Daily Weather History Graph

Search for Another Location

Airport or City:

Trip Planner

Search our weather history database for the weather conditions in past years. The results will help you decide how hot, cold, wet, or windy it might be!

Date:

Astronomy

Oct. 26, 2013 Rise Set
Actual Time 7:49 AM CDT 6:10 PM CDT
Civil Twilight 7:18 AM CDT 6:41 PM CDT
Nautical Twilight 6:43 AM CDT 7:16 PM CDT
Astronomical Twilight 6:08 AM CDT 7:51 PM CDT
Moon No Moon Rise 2:09 PM CDT (10/26)
Length of Visible Light 11h 22m
Length of Day
10h 20m
Waning Gibbous, 53% of the Moon is Illuminated
Oct 26
Waning Gibbous
Oct 26
Last Quarter
Nov 3
New
Nov 9
First Quarter
Nov 17
Full

Hourly Weather History & Observations

Time (CDT) Temp. Windchill Dew Point Humidity Pressure Visibility Wind Dir Wind Speed Gust Speed Precip Events Conditions
12:53 AM 44.1 °F 36.2 °F 26.1 °F 49% 29.85 in 10.0 mi NW 18.4 mph 31.1 mph N/A   Clear
1:53 AM 41.0 °F 32.2 °F 28.9 °F 62% 29.87 in 10.0 mi NW 18.4 mph 26.5 mph N/A   Clear
2:53 AM 39.0 °F 29.3 °F 28.9 °F 67% 29.90 in 10.0 mi NNW 19.6 mph 26.5 mph N/A   Clear
3:25 AM 37.4 °F 28.9 °F 28.4 °F 70% 29.88 in 10.0 mi NW 13.8 mph - N/A   Mostly Cloudy
3:53 AM 37.9 °F 28.2 °F 28.0 °F 68% 29.92 in 10.0 mi NW 18.4 mph 23.0 mph N/A   Overcast
4:53 AM 37.9 °F 29.2 °F 27.0 °F 65% 29.94 in 10.0 mi NW 15.0 mph 24.2 mph N/A   Overcast
5:12 AM 37.4 °F 28.2 °F 26.6 °F 65% 29.93 in 10.0 mi NW 16.1 mph 23.0 mph N/A   Overcast
5:53 AM 37.0 °F 28.9 °F 27.0 °F 67% 29.97 in 10.0 mi NW 12.7 mph 18.4 mph N/A   Scattered Clouds
6:53 AM 36.0 °F 27.5 °F 26.1 °F 67% 29.99 in 10.0 mi NW 12.7 mph 19.6 mph N/A   Clear
7:50 AM 35.6 °F 27.1 °F 26.6 °F 70% 29.99 in 10.0 mi NW 12.7 mph 20.7 mph N/A   Mostly Cloudy
7:53 AM 36.0 °F 27.1 °F 26.1 °F 67% 30.02 in 10.0 mi NW 13.8 mph - N/A   Mostly Cloudy
8:53 AM 37.0 °F 27.7 °F 27.0 °F 67% 30.04 in 10.0 mi NNW 16.1 mph 23.0 mph N/A   Overcast
9:53 AM 39.0 °F 31.4 °F 28.0 °F 65% 30.07 in 10.0 mi NW 12.7 mph - N/A   Overcast
10:53 AM 41.0 °F 31.6 °F 28.0 °F 60% 30.09 in 10.0 mi NNW 20.7 mph 25.3 mph N/A   Overcast
11:53 AM 39.9 °F 32.1 °F 28.0 °F 63% 30.11 in 10.0 mi NW 13.8 mph 19.6 mph N/A   Overcast
12:53 PM 41.0 °F 33.5 °F 28.0 °F 60% 30.12 in 10.0 mi NW 13.8 mph - N/A   Overcast
1:53 PM 42.1 °F 34.2 °F 27.0 °F 55% 30.12 in 10.0 mi NW 16.1 mph - N/A   Overcast
2:53 PM 42.1 °F 35.7 °F 27.0 °F 55% 30.12 in 10.0 mi NW 11.5 mph - N/A   Overcast
3:53 PM 41.0 °F 34.3 °F 27.0 °F 57% 30.12 in 10.0 mi NW 11.5 mph 17.3 mph N/A   Overcast
4:53 PM 39.9 °F 33.4 °F 26.1 °F 58% 30.12 in 10.0 mi WNW 10.4 mph - N/A   Overcast
5:53 PM 39.9 °F 33.9 °F 26.1 °F 58% 30.11 in 10.0 mi WNW 9.2 mph - N/A   Overcast
6:53 PM 39.9 °F 36.7 °F 27.0 °F 60% 30.12 in 10.0 mi NW 4.6 mph - N/A   Overcast
7:53 PM 39.9 °F 35.1 °F 27.0 °F 60% 30.10 in 10.0 mi West 6.9 mph - N/A   Overcast
8:53 PM 39.0 °F 33.4 °F 27.0 °F 62% 30.09 in 10.0 mi WSW 8.1 mph - N/A   Overcast
9:53 PM 37.9 °F 33.5 °F 27.0 °F 65% 30.07 in 10.0 mi West 5.8 mph - N/A   Overcast
10:53 PM 37.9 °F 34.4 °F 26.1 °F 62% 30.04 in 10.0 mi West 4.6 mph - N/A   Overcast
11:53 PM 32.0 °F 27.5 °F 25.0 °F 75% 30.02 in 10.0 mi South 4.6 mph - N/A   Clear